Location: Boiro
(42.6475°N, 8.8834°W)
Time: 20:35:00
(UTC+01:00)

Vanguard 1 - Pass Details

Date: 04 December 2021
Orbit: 652 x 3830 km, 34.2° (Epoch: 19 January)

Event Time Altitude Azimuth Distance (km) Brightness Sun altitude
Rises 03:46:41 0° 260° (W) 7,753 - -54.3°
Reaches altitude 10° 03:51:48 10° 258° (WSW) 6,868 - -53.5°
Maximum altitude 04:15:06 67° 183° (S) 3,663 - -49.4°
Exits shadow 04:16:10 67° 170° (S) 3,626 12.5 -49.2°
Drops below altitude 10° 04:31:48 10° 106° (ESE) 5,168 14.2 -46.5°
Sets 04:35:02 0° 103° (ESE) 5,836 14.6 -45.9°
